Location: Ahausen
(50.4985°N, 8.2722°E)
Time: 13:28:33
(UTC+00:00)

BlueWalker 3 - Pass Details

Date: 05 March 2024
Orbit: 485 x 495 km, 53.2° (Epoch: 23 April)

Event Time Altitude Azimuth Distance (km) Brightness Sun altitude
Rises 17:53:32 0° 291° (WNW) 2,566 7.0 -6.8°
Reaches altitude 10° 17:55:48 10° 284° (WNW) 1,679 6.1 -7.1°
Maximum altitude 17:59:21 39° 214° (SW) 739 3.1 -7.7°
Drops below altitude 10° 18:02:52 10° 145° (SE) 1,665 4.2 -8.3°
Enters shadow 18:04:34 - 139° (SE) 2,326 4.9 -8.5°
